This demonstration page uses our WeatherBlox Daily Observations layout. Learn more.

Left ArrowRight Arrow

Hourly Observations for July 13, 2021

Temp ( °F °C ) Dew Point ( °F °C ) Humidity (%) Winds ( mph kmh ) Pressure ( in mb ) Visibility ( mi km ) Precip ( " mm )
12:56 am 00:56 Clear 65 18.3 60 15.6 84 84 SSE 8 13 30.03 1017 10 16 0.00 0.00
1:56 am 01:56 Clear 63 17.2 60 15.6 90 90 S 9 15 30.03 1017 10 16 0.00 0.00
2:56 am 02:56 Clear 63 17.2 59 15 87 87 S 10 17 30.02 1017 10 16 0.00 0.00
3:56 am 03:56 Clear 63 17.2 58 14.4 84 84 SSW 7 11 30.01 1016 10 16 0.00 0.00
4:56 am 04:56 Clear 63 17.2 57 13.9 81 81 SSW 6 9 30.01 1016 10 16 0.00 0.00
5:56 am 05:56 Clear 62 16.7 57 13.9 84 84 SW 8 13 30.01 1016 10 16 0.00 0.00
6:56 am 06:56 Sunny 64 17.8 57 13.9 78 78 SW 5 7 30.01 1016 10 16 0.00 0.00
7:56 am 07:56 Sunny 66 18.9 59 15 78 78 S 3 6 30.02 1017 10 16 0.00 0.00
8:56 am 08:56 Sunny 69 20.6 61 16.1 76 76 S 7 11 30.04 1017 10 16 0.00 0.00
9:56 am 09:56 Sunny 75 23.9 62 16.7 64 64 SSW 5 7 30.04 1017 10 16 0.00 0.00
10:56 am 10:56 Sunny 76 24.4 64 17.8 67 67 NNW 9 15 30.06 1018 10 16 0.00 0.00
11:56 am 11:56 Sunny 75 23.9 64 17.8 69 69 ENE 5 7 30.06 1018 10 16 0.00 0.00
12:56 pm 12:56 Sunny 80 26.7 67 19.4 64 64 Calm 30.04 1017 10 16 0.00 0.00
1:56 pm 13:56 Sunny 82 27.8 67 19.4 60 60 NNE 8 13 30.05 1018 10 16 0.00 0.00
2:56 pm 14:56 Sunny 82 27.8 66 18.9 58 58 NNE 10 17 30.04 1017 10 16 0.00 0.00
3:56 pm 15:56 Sunny 80 26.7 70 21.1 71 71 SE 10 17 30.01 1016 10 16 0.00 0.00
4:56 pm 16:56 Sunny 80 26.7 71 21.7 74 74 ESE 7 11 29.99 1016 10 16 0.00 0.00
5:56 pm 17:56 Sunny 81 27.2 73 22.8 77 77 E 7 11 29.99 1016 10 16 0.00 0.00
6:56 pm 18:56 Sunny 81 27.2 73 22.8 77 77 E 9 15 29.96 1015 10 16 0.00 0.00
7:56 pm 19:56 Sunny 80 26.7 73 22.8 79 79 E 8 13 29.95 1014 10 16 0.00 0.00
8:56 pm 20:56 Sunny 75 23.9 72 22.2 90 90 ENE 7 11 29.96 1015 10 16 0.00 0.00
9:56 pm 21:56 Clear 74 23.3 72 22.2 94 94 ENE 10 17 29.96 1015 10 16 0.00 0.00
10:56 pm 22:56 Clear 74 23.3 72 22.2 94 94 E 10 17 29.96 1014 10 16 0.00 0.00
11:56 pm 23:56 Clear 73 22.8 70 21.1 90 90 E 10 17 29.93 1014 10 16 0.00 0.00

Powered by AerisWeather